Time,TemperatureF,DewpointF,PressureIn,WindDirection,WindDirectionDegrees,WindSpeedMPH,WindSpeedGustMPH,Humidity,HourlyPrecipIn,Conditions,Clouds,dailyrainin,SoftwareType,DateUTC
2013-01-12 00:03:00,55.0,48.0,-100.00,SSE,160,2.0,11.0,77,-99.99,,,-99.99,,2013-01-12 05:03:00,
2013-01-12 00:12:00,54.0,47.0,-100.00,SSE,165,3.0,14.0,77,-99.99,,,-99.99,,2013-01-12 05:12:00,
2013-01-12 00:22:00,55.0,47.0,-100.00,SSE,165,4.0,14.0,75,-99.99,,,-99.99,,2013-01-12 05:22:00,
2013-01-12 00:32:00,54.0,47.0,-100.00,SE,140,2.0,11.0,75,-99.99,,,-99.99,,2013-01-12 05:32:00,
2013-01-12 00:42:00,54.0,47.0,-100.00,South,170,2.0,9.0,75,-99.99,,,-99.99,,2013-01-12 05:42:00,
2013-01-12 00:52:00,54.0,47.0,-100.00,SSE,155,2.0,10.0,75,-99.99,,,-99.99,,2013-01-12 05:52:00,
2013-01-12 01:02:00,54.0,46.0,-100.00,SE,145,3.0,8.0,75,-99.99,,,-99.99,,2013-01-12 06:02:00,
2013-01-12 01:12:00,54.0,46.0,-100.00,SE,130,4.0,11.0,75,-99.99,,,-99.99,,2013-01-12 06:12:00,
2013-01-12 01:22:00,54.0,47.0,-100.00,SE,145,2.0,11.0,75,-99.99,,,-99.99,,2013-01-12 06:22:00,
2013-01-12 01:33:00,54.0,47.0,-100.00,SSE,155,3.0,9.0,75,-99.99,,,-99.99,,2013-01-12 06:33:00,
2013-01-12 01:42:00,54.0,47.0,-100.00,SSE,150,4.0,12.0,75,-99.99,,,-99.99,,2013-01-12 06:42:00,
2013-01-12 01:52:00,54.0,47.0,-100.00,SSE,155,4.0,9.0,76,-99.99,,,-99.99,,2013-01-12 06:52:00,
2013-01-12 02:02:00,54.0,47.0,-100.00,SSE,155,2.0,10.0,76,-99.99,,,-99.99,,2013-01-12 07:02:00,
2013-01-12 02:12:00,54.0,47.0,-100.00,South,185,2.0,9.0,76,-99.99,,,-99.99,,2013-01-12 07:12:00,
2013-01-12 02:22:00,54.0,46.0,-100.00,SE,130,1.0,7.0,76,-99.99,,,-99.99,,2013-01-12 07:22:00,
2013-01-12 02:32:00,54.0,47.0,-100.00,SSE,160,4.0,7.0,77,-99.99,,,-99.99,,2013-01-12 07:32:00,
2013-01-12 02:42:00,54.0,47.0,-100.00,SSE,165,3.0,11.0,77,-99.99,,,-99.99,,2013-01-12 07:42:00,
2013-01-12 02:52:00,54.0,47.0,-100.00,South,180,1.0,10.0,77,-99.99,,,-99.99,,2013-01-12 07:52:00,
2013-01-12 03:02:00,54.0,47.0,-100.00,South,180,1.0,10.0,77,-99.99,,,-99.99,,2013-01-12 08:02:00,
2013-01-12 03:12:00,54.0,47.0,-100.00,South,175,5.0,9.0,77,-99.99,,,-99.99,,2013-01-12 08:12:00,
2013-01-12 03:22:00,54.0,47.0,-100.00,South,175,5.0,9.0,77,-99.99,,,-99.99,,2013-01-12 08:22:00,
2013-01-12 03:32:00,53.0,46.0,-100.00,ESE,120,2.0,9.0,77,-99.99,,,-99.99,,2013-01-12 08:32:00,
2013-01-12 03:42:00,53.0,46.0,-100.00,SE,125,2.0,12.0,77,-99.99,,,-99.99,,2013-01-12 08:42:00,
2013-01-12 03:52:00,53.0,46.0,-100.00,SSE,160,2.0,9.0,77,-99.99,,,-99.99,,2013-01-12 08:52:00,
2013-01-12 04:02:00,53.0,46.0,-100.00,SE,135,1.0,9.0,77,-99.99,,,-99.99,,2013-01-12 09:02:00,
2013-01-12 04:12:00,53.0,46.0,-100.00,SE,135,1.0,9.0,77,-99.99,,,-99.99,,2013-01-12 09:12:00,
2013-01-12 04:22:00,54.0,47.0,-100.00,SE,145,2.0,11.0,77,-99.99,,,-99.99,,2013-01-12 09:22:00,
2013-01-12 04:32:00,54.0,47.0,-100.00,SSE,160,3.0,8.0,77,-99.99,,,-99.99,,2013-01-12 09:32:00,
2013-01-12 04:42:00,54.0,47.0,-100.00,SE,140,2.0,7.0,77,-99.99,,,-99.99,,2013-01-12 09:42:00,
2013-01-12 04:53:00,54.0,47.0,-100.00,SSE,150,4.0,10.0,77,-99.99,,,-99.99,,2013-01-12 09:53:00,
2013-01-12 05:02:00,54.0,47.0,-100.00,SSE,155,3.0,12.0,77,-99.99,,,-99.99,,2013-01-12 10:02:00,
2013-01-12 05:12:00,54.0,47.0,-100.00,SSE,155,3.0,12.0,77,-99.99,,,-99.99,,2013-01-12 10:12:00,
2013-01-12 05:22:00,53.0,47.0,-100.00,SSE,160,3.0,12.0,77,-99.99,,,-99.99,,2013-01-12 10:22:00,
2013-01-12 05:32:00,53.0,46.0,-100.00,South,170,4.0,9.0,77,-99.99,,,-99.99,,2013-01-12 10:32:00,
2013-01-12 05:42:00,53.0,46.0,-100.00,South,170,4.0,9.0,77,-99.99,,,-99.99,,2013-01-12 10:42:00,
2013-01-12 05:52:00,53.0,46.0,-100.00,SSE,150,3.0,12.0,79,-99.99,,,-99.99,,2013-01-12 10:52:00,
2013-01-12 06:02:00,53.0,47.0,-100.00,South,175,4.0,12.0,80,-99.99,,,-99.99,,2013-01-12 11:02:00,
2013-01-12 06:12:00,53.0,47.0,-100.00,South,175,4.0,11.0,81,-99.99,,,-99.99,,2013-01-12 11:12:00,
2013-01-12 06:22:00,53.0,47.0,-100.00,South,175,4.0,11.0,81,-99.99,,,-99.99,,2013-01-12 11:22:00,
2013-01-12 06:33:00,53.0,48.0,-100.00,South,170,4.0,11.0,81,-99.99,,,-99.99,,2013-01-12 11:33:00,
2013-01-12 06:42:00,54.0,48.0,-100.00,South,180,2.0,10.0,82,-99.99,,,-99.99,,2013-01-12 11:42:00,
2013-01-12 06:52:00,54.0,49.0,-100.00,SE,145,3.0,9.0,82,-99.99,,,-99.99,,2013-01-12 11:52:00,
2013-01-12 07:03:00,54.0,49.0,-100.00,SE,135,2.0,11.0,82,-99.99,,,-99.99,,2013-01-12 12:03:00,
2013-01-12 07:12:00,54.0,49.0,-100.00,SE,140,3.0,12.0,82,-99.99,,,-99.99,,2013-01-12 12:12:00,
2013-01-12 07:22:00,54.0,49.0,-100.00,South,175,5.0,9.0,82,-99.99,,,-99.99,,2013-01-12 12:22:00,
2013-01-12 07:33:00,54.0,49.0,-100.00,SSE,165,7.0,12.0,82,-99.99,,,-99.99,,2013-01-12 12:33:00,
2013-01-12 07:42:00,54.0,49.0,-100.00,South,170,4.0,12.0,82,-99.99,,,-99.99,,2013-01-12 12:42:00,
2013-01-12 07:52:00,54.0,49.0,-100.00,South,185,1.0,10.0,82,-99.99,,,-99.99,,2013-01-12 12:52:00,
2013-01-12 08:02:00,54.0,49.0,-100.00,SSE,155,3.0,9.0,82,-99.99,,,-99.99,,2013-01-12 13:02:00,
2013-01-12 08:12:00,54.0,49.0,-100.00,SSE,150,4.0,9.0,82,-99.99,,,-99.99,,2013-01-12 13:12:00,
2013-01-12 08:22:00,54.0,49.0,-100.00,SE,145,2.0,11.0,82,-99.99,,,-99.99,,2013-01-12 13:22:00,
2013-01-12 08:33:00,54.0,49.0,-100.00,ESE,115,1.0,8.0,82,-99.99,,,-99.99,,2013-01-12 13:33:00,
2013-01-12 08:42:00,55.0,49.0,-100.00,South,175,2.0,7.0,82,-99.99,,,-99.99,,2013-01-12 13:42:00,
2013-01-12 08:53:00,55.0,49.0,-100.00,ESE,105,3.0,11.0,82,-99.99,,,-99.99,,2013-01-12 13:53:00,
2013-01-12 09:02:00,55.0,50.0,-100.00,SE,130,3.0,11.0,82,-99.99,,,-99.99,,2013-01-12 14:02:00,
2013-01-12 09:12:00,55.0,50.0,-100.00,SE,135,3.0,11.0,82,-99.99,,,-99.99,,2013-01-12 14:12:00,
2013-01-12 09:22:00,55.0,50.0,-100.00,SSW,200,2.0,9.0,82,-99.99,,,-99.99,,2013-01-12 14:22:00,
2013-01-12 09:33:00,56.0,50.0,-100.00,South,180,4.0,10.0,81,-99.99,,,-99.99,,2013-01-12 14:33:00,
2013-01-12 09:43:00,56.0,50.0,-100.00,South,180,4.0,10.0,81,-99.99,,,-99.99,,2013-01-12 14:43:00,
2013-01-12 09:53:00,56.0,50.0,-100.00,SSE,165,4.0,10.0,80,-99.99,,,-99.99,,2013-01-12 14:53:00,
2013-01-12 10:03:00,56.0,50.0,-100.00,SE,145,2.0,9.0,79,-99.99,,,-99.99,,2013-01-12 15:03:00,
2013-01-12 10:12:00,57.0,50.0,-100.00,South,185,4.0,12.0,79,-99.99,,,-99.99,,2013-01-12 15:12:00,
2013-01-12 10:23:00,57.0,51.0,-100.00,SE,145,4.0,11.0,79,-99.99,,,-99.99,,2013-01-12 15:23:00,
2013-01-12 10:33:00,57.0,51.0,-100.00,ESE,120,4.0,10.0,79,-99.99,,,-99.99,,2013-01-12 15:33:00,
2013-01-12 10:43:00,58.0,51.0,-100.00,SE,130,4.0,11.0,78,-99.99,,,-99.99,,2013-01-12 15:43:00,
2013-01-12 10:53:00,58.0,51.0,-100.00,SE,130,4.0,14.0,77,-99.99,,,-99.99,,2013-01-12 15:53:00,
2013-01-12 11:03:00,59.0,51.0,-100.00,SSE,160,5.0,11.0,76,-99.99,,,-99.99,,2013-01-12 16:03:00,
2013-01-12 11:12:00,59.0,51.0,-100.00,SSE,165,5.0,11.0,75,-99.99,,,-99.99,,2013-01-12 16:12:00,
2013-01-12 11:23:00,59.0,51.0,-100.00,South,190,6.0,10.0,73,-99.99,,,-99.99,,2013-01-12 16:23:00,
2013-01-12 11:33:00,60.0,51.0,-100.00,South,170,4.0,12.0,72,-99.99,,,-99.99,,2013-01-12 16:33:00,
2013-01-12 11:42:00,60.0,50.0,-100.00,SW,220,6.0,14.0,69,-99.99,,,-99.99,,2013-01-12 16:42:00,
2013-01-12 11:53:00,61.0,50.0,-100.00,South,190,6.0,12.0,67,-99.99,,,-99.99,,2013-01-12 16:53:00,
2013-01-12 12:02:00,61.0,50.0,-100.00,South,185,5.0,11.0,67,-99.99,,,-99.99,,2013-01-12 17:02:00,
2013-01-12 12:12:00,62.0,50.0,-100.00,SSW,195,7.0,16.0,65,-99.99,,,-99.99,,2013-01-12 17:12:00,
2013-01-12 12:23:00,62.0,50.0,-100.00,South,190,4.0,14.0,64,-99.99,,,-99.99,,2013-01-12 17:23:00,
2013-01-12 12:33:00,62.0,50.0,-100.00,SSW,210,6.0,12.0,64,-99.99,,,-99.99,,2013-01-12 17:33:00,
2013-01-12 12:43:00,62.0,50.0,-100.00,SSW,210,6.0,12.0,64,-99.99,,,-99.99,,2013-01-12 17:43:00,
2013-01-12 12:53:00,62.0,50.0,-100.00,SSW,210,6.0,11.0,64,-99.99,,,-99.99,,2013-01-12 17:53:00,
2013-01-12 13:03:00,62.0,50.0,-100.00,South,185,4.0,17.0,63,-99.99,,,-99.99,,2013-01-12 18:03:00,
2013-01-12 13:12:00,63.0,50.0,-100.00,SSE,160,4.0,12.0,63,-99.99,,,-99.99,,2013-01-12 18:12:00,
2013-01-12 13:23:00,63.0,50.0,-100.00,SSE,165,6.0,10.0,63,-99.99,,,-99.99,,2013-01-12 18:23:00,
2013-01-12 13:33:00,63.0,50.0,-100.00,SSE,165,6.0,10.0,63,-99.99,,,-99.99,,2013-01-12 18:33:00,
2013-01-12 13:42:00,63.0,50.0,-100.00,South,170,4.0,10.0,63,-99.99,,,-99.99,,2013-01-12 18:42:00,
2013-01-12 13:52:00,63.0,50.0,-100.00,South,175,3.0,14.0,63,-99.99,,,-99.99,,2013-01-12 18:52:00,
2013-01-12 14:03:00,63.0,51.0,-100.00,SSE,160,3.0,12.0,63,-99.99,,,-99.99,,2013-01-12 19:03:00,
2013-01-12 14:12:00,63.0,50.0,-100.00,SSE,155,6.0,14.0,62,-99.99,,,-99.99,,2013-01-12 19:12:00,
2013-01-12 14:23:00,63.0,50.0,-100.00,SE,140,4.0,13.0,62,-99.99,,,-99.99,,2013-01-12 19:23:00,
2013-01-12 14:33:00,63.0,50.0,-100.00,SE,140,4.0,13.0,62,-99.99,,,-99.99,,2013-01-12 19:33:00,
2013-01-12 14:43:00,63.0,50.0,-100.00,SE,140,6.0,14.0,61,-99.99,,,-99.99,,2013-01-12 19:43:00,
2013-01-12 14:52:00,64.0,50.0,-100.00,SE,135,4.0,12.0,61,-99.99,,,-99.99,,2013-01-12 19:52:00,
2013-01-12 15:03:00,64.0,50.0,-100.00,SSE,155,4.0,14.0,61,-99.99,,,-99.99,,2013-01-12 20:03:00,
2013-01-12 15:13:00,64.0,50.0,-100.00,SE,130,7.0,16.0,61,-99.99,,,-99.99,,2013-01-12 20:13:00,
2013-01-12 15:22:00,63.0,50.0,-100.00,SSE,150,4.0,18.0,61,-99.99,,,-99.99,,2013-01-12 20:22:00,
2013-01-12 15:33:00,64.0,50.0,-100.00,SE,145,4.0,11.0,61,-99.99,,,-99.99,,2013-01-12 20:33:00,
2013-01-12 15:42:00,64.0,50.0,-100.00,South,170,6.0,16.0,61,-99.99,,,-99.99,,2013-01-12 20:42:00,
2013-01-12 15:53:00,64.0,50.0,-100.00,SSE,150,4.0,12.0,61,-99.99,,,-99.99,,2013-01-12 20:53:00,
2013-01-12 16:03:00,64.0,50.0,-100.00,SSE,155,5.0,14.0,61,-99.99,,,-99.99,,2013-01-12 21:03:00,
2013-01-12 16:12:00,64.0,50.0,-100.00,SSE,160,4.0,11.0,61,-99.99,,,-99.99,,2013-01-12 21:12:00,
2013-01-12 16:22:00,64.0,50.0,-100.00,South,170,4.0,14.0,61,-99.99,,,-99.99,,2013-01-12 21:22:00,
2013-01-12 16:33:00,64.0,50.0,-100.00,South,175,4.0,12.0,61,-99.99,,,-99.99,,2013-01-12 21:33:00,
2013-01-12 16:43:00,63.0,50.0,-100.00,South,170,4.0,11.0,61,-99.99,,,-99.99,,2013-01-12 21:43:00,
2013-01-12 16:52:00,63.0,50.0,-100.00,SSE,160,2.0,9.0,62,-99.99,,,-99.99,,2013-01-12 21:52:00,
2013-01-12 17:03:00,63.0,50.0,-100.00,South,175,3.0,12.0,63,-99.99,,,-99.99,,2013-01-12 22:03:00,
2013-01-12 17:12:00,62.0,50.0,-100.00,South,185,2.0,6.0,63,-99.99,,,-99.99,,2013-01-12 22:12:00,
2013-01-12 17:23:00,62.0,50.0,-100.00,South,185,2.0,6.0,63,-99.99,,,-99.99,,2013-01-12 22:23:00,
2013-01-12 17:33:00,62.0,50.0,-100.00,South,185,2.0,6.0,63,-99.99,,,-99.99,,2013-01-12 22:33:00,
2013-01-12 17:43:00,61.0,50.0,-100.00,SSE,150,1.0,6.0,66,-99.99,,,-99.99,,2013-01-12 22:43:00,
2013-01-12 17:52:00,61.0,50.0,-100.00,South,180,1.0,7.0,67,-99.99,,,-99.99,,2013-01-12 22:52:00,
2013-01-12 18:03:00,60.0,50.0,-100.00,NW,315,1.0,6.0,68,-99.99,,,-99.99,,2013-01-12 23:03:00,
2013-01-12 18:13:00,60.0,50.0,-100.00,ESE,105,0.0,6.0,69,-99.99,,,-99.99,,2013-01-12 23:13:00,
2013-01-12 18:22:00,60.0,50.0,-100.00,ESE,105,0.0,6.0,69,-99.99,,,-99.99,,2013-01-12 23:22:00,
2013-01-12 18:33:00,59.0,50.0,-100.00,ENE,65,1.0,4.0,71,-99.99,,,-99.99,,2013-01-12 23:33:00,
2013-01-12 18:43:00,59.0,50.0,-100.00,ENE,70,0.0,4.0,72,-99.99,,,-99.99,,2013-01-12 23:43:00,
2013-01-12 18:53:00,59.0,50.0,-100.00,South,185,1.0,3.0,73,-99.99,,,-99.99,,2013-01-12 23:53:00,
2013-01-12 19:03:00,59.0,50.0,-100.00,South,185,1.0,3.0,73,-99.99,,,-99.99,,2013-01-13 00:03:00,
2013-01-12 19:12:00,58.0,50.0,-100.00,East,80,2.0,3.0,74,-99.99,,,-99.99,,2013-01-13 00:12:00,
2013-01-12 19:23:00,58.0,51.0,-100.00,East,100,1.0,4.0,75,-99.99,,,-99.99,,2013-01-13 00:23:00,
2013-01-12 19:33:00,58.0,50.0,-100.00,ENE,65,1.0,2.0,75,-99.99,,,-99.99,,2013-01-13 00:33:00,
2013-01-12 19:43:00,58.0,50.0,-100.00,ENE,60,1.0,3.0,76,-99.99,,,-99.99,,2013-01-13 00:43:00,
2013-01-12 19:52:00,57.0,50.0,-100.00,NE,50,1.0,4.0,77,-99.99,,,-99.99,,2013-01-13 00:52:00,
2013-01-12 20:03:00,58.0,51.0,-100.00,NE,40,1.0,3.0,78,-99.99,,,-99.99,,2013-01-13 01:03:00,
2013-01-12 20:12:00,58.0,51.0,-100.00,NE,40,0.0,2.0,78,-99.99,,,-99.99,,2013-01-13 01:12:00,
2013-01-12 20:23:00,57.0,50.0,-100.00,NNE,30,0.0,2.0,78,-99.99,,,-99.99,,2013-01-13 01:23:00,
2013-01-12 20:33:00,57.0,50.0,-100.00,East,95,0.0,2.0,79,-99.99,,,-99.99,,2013-01-13 01:33:00,
2013-01-12 20:43:00,57.0,51.0,-100.00,South,180,1.0,2.0,79,-99.99,,,-99.99,,2013-01-13 01:43:00,
2013-01-12 20:52:00,58.0,51.0,-100.00,SE,135,1.0,3.0,79,-99.99,,,-99.99,,2013-01-13 01:52:00,
2013-01-12 21:02:00,59.0,53.0,-100.00,South,180,1.0,6.0,80,-99.99,,,-99.99,,2013-01-13 02:02:00,
2013-01-12 21:12:00,59.0,53.0,-100.00,SE,145,1.0,7.0,80,-99.99,,,-99.99,,2013-01-13 02:12:00,
2013-01-12 21:22:00,60.0,54.0,-100.00,SE,125,1.0,9.0,80,-99.99,,,-99.99,,2013-01-13 02:22:00,
2013-01-12 21:33:00,60.0,54.0,-100.00,ENE,70,1.0,7.0,80,-99.99,,,-99.99,,2013-01-13 02:33:00,
2013-01-12 21:43:00,60.0,54.0,-100.00,East,85,0.0,6.0,80,-99.99,,,-99.99,,2013-01-13 02:43:00,
2013-01-12 21:52:00,60.0,54.0,-100.00,SSE,165,1.0,7.0,80,-99.99,,,-99.99,,2013-01-13 02:52:00,
2013-01-12 22:03:00,60.0,54.0,-100.00,East,90,2.0,9.0,80,-99.99,,,-99.99,,2013-01-13 03:03:00,
2013-01-12 22:12:00,61.0,55.0,-100.00,SE,135,3.0,7.0,80,-99.99,,,-99.99,,2013-01-13 03:12:00,
2013-01-12 22:22:00,61.0,55.0,-100.00,ESE,110,3.0,17.0,79,-99.99,,,-99.99,,2013-01-13 03:22:00,
2013-01-12 22:33:00,61.0,55.0,-100.00,SE,140,4.0,12.0,79,-99.99,,,-99.99,,2013-01-13 03:33:00,
2013-01-12 22:43:00,62.0,55.0,-100.00,SSE,165,2.0,9.0,79,-99.99,,,-99.99,,2013-01-13 03:43:00,
2013-01-12 22:52:00,62.0,55.0,-100.00,SE,130,2.0,7.0,79,-99.99,,,-99.99,,2013-01-13 03:52:00,
2013-01-12 23:03:00,62.0,55.0,-100.00,SSE,165,1.0,6.0,79,-99.99,,,-99.99,,2013-01-13 04:03:00,
2013-01-12 23:12:00,62.0,55.0,-100.00,East,95,3.0,7.0,79,-99.99,,,-99.99,,2013-01-13 04:12:00,
2013-01-12 23:22:00,62.0,55.0,-100.00,SE,125,3.0,10.0,79,-99.99,,,-99.99,,2013-01-13 04:22:00,
2013-01-12 23:33:00,62.0,55.0,-100.00,ESE,105,4.0,10.0,79,-99.99,,,-99.99,,2013-01-13 04:33:00,
2013-01-12 23:42:00,62.0,55.0,-100.00,ESE,105,4.0,9.0,79,-99.99,,,-99.99,,2013-01-13 04:42:00,
2013-01-12 23:52:00,61.0,55.0,-100.00,East,80,3.0,9.0,79,-99.99,,,-99.99,,2013-01-13 04:52:00,